Flag for Germany Weather past 2 weeks in Kiel, Schleswig-Holstein, Germany

Now
55 °F

Fog.


Feels Like: 55 °F
Forecast: 50 / 58 °F
Wind: 2 mph from Southwest

Location: Kiel-Holtenau

Current Time: Sep 24, 2014 at 1:11:36 AM

Latest Report: Sep 24, 2014 at 12:00 AM


Visibility: 4 mi

Pressure: 29.97 "Hg

Humidity: 84%

Dew point: 51 °F

Location of KielLocation

Historic Weather in Kiel — Graph

°F

Kiel temperature yesterday

Maximum temperature yesterday: 60 °F (at 3:00 PM)
Minimum temperature yesterday: 40 °F (at 7:00 AM)
Average temperature yesterday: 52 °F

Past Weeks' High & Low Weather Summary

 TemperatureHumidityPressure
High70 °F (Sep 19, 3:00 PM)100% (Sep 20, 7:00 AM)30.29 "Hg (Sep 20, 7:00 AM)
Low40 °F (Sep 23, 7:00 AM)51% (Sep 23, 12:00 PM)29.78 "Hg (Sep 22, 6:00 AM)
Average61 °F84%30.06 "Hg
* Reported Midnight between Sep 8 and Sep 9 — Midnight between Sep 23 and Sep 24, Kiel, Weather by CustomWeather, © 2014

Note: Actual official high and low records may vary slightly from our data, if they occured in-between our weather recording intervals... More about our weather records

Advertising

Kiel weather history for previous 24 hours

 ConditionsComfort  
Time TempWeatherWind HumidityBarometerVisibility
12:00 AM
Sep 24
55 °FFog.2 mph84%29.97 "Hg4 mi
11:00 PM
Sep 23
55 °FOvercast.3 mph88%29.99 "Hg4 mi
10:00 PM56 °FOvercast.5 mph83%30.01 "Hg4 mi
9:00 PM56 °FOvercast.3 mph79%30.02 "Hg8 mi
8:00 PM57 °FOvercast.2 mph76%30.02 "Hg12 mi
7:00 PM58 °FOvercast.2 mph72%30.03 "Hg19 mi
6:00 PM58 °FOvercast.2 mph69%30.03 "Hg22 mi
5:00 PM59 °FScattered clouds.3 mph64%30.04 "Hg17 mi
4:00 PM59 °FOvercast.3 mph61%30.06 "Hg25 mi
3:00 PM60 °FOvercast.2 mph60%30.07 "Hg37 mi
2:00 PM60 °FScattered clouds.3 mph54%30.09 "Hg22 mi
1:00 PM59 °FPassing clouds.3 mph54%30.09 "Hg18 mi
12:00 PM58 °FSunny.2 mph51%30.10 "Hg19 mi
11:00 AM56 °FSunny.2 mph57%30.11 "Hg18 mi
10:00 AM53 °FSunny.2 mph76%30.10 "Hg10 mi
9:00 AM47 °FSunny.2 mph82%30.09 "Hg16 mi
8:00 AM43 °FPassing clouds.2 mph89%30.09 "Hg14 mi
7:00 AM40 °FClear.3 mph94%30.09 "Hg9 mi
6:00 AM42 °FClear.2 mph94%30.08 "Hg11 mi
5:00 AM41 °FClear.3 mph93%30.08 "Hg11 mi
4:00 AM46 °FOvercast.3 mph87%30.08 "Hg15 mi
3:00 AM47 °FOvercast.5 mph86%30.08 "Hg16 mi
2:00 AM47 °FPassing clouds.3 mph85%30.07 "Hg17 mi
1:00 AM50 °FOvercast.5 mph78%30.06 "Hg19 mi
Weather by CustomWeather, © 2014

See weather overviewHow to use our weather pages